DW1035 Weather Reports


Display with metric or nautical units.
time (UTC)temp
F
wind
direction
speed
MPH
gust
MPH
rain 1hr
in
rain 24hr
in
rain mn
in
humidity
%
barometer
mb
20260904003004 65 27 3.0 7.0 0.00 0.25 0.22 97 1006.3
20260904001504 66 18 2.0 6.0 0.00 0.25 0.22 97 1006.2
20260904001003 66 12 3.0 9.0 0.00 0.25 0.22 97 1006.0
20260904000503 66 57 3.0 6.0 0.00 0.25 0.22 97 1006.0
20260904000004 66 44 3.0 8.0 0.00 0.25 0.22 96 1006.0
20260903234510 66 68 3.0 9.0 0.00 0.25 0.22 96 1006.3
20260903234009 66 13 5.0 9.0 0.00 0.25 0.22 96 1006.1
20260903233510 66 53 3.0 8.0 0.00 0.25 0.22 96 1005.9
20260903233010 66 70 3.0 8.0 0.00 0.25 0.22 96 1005.9
20260903231509 66 67 3.0 8.0 0.00 0.25 0.22 95 1006.3
20260903231010 66 38 3.0 8.0 0.00 0.25 0.22 95 1006.2
20260903230509 66 84 4.0 9.0 0.00 0.25 0.22 95 1006.2
20260903230009 66 94 3.0 10.0 0.00 0.25 0.22 95 1006.2
20260903224009 67 51 3.0 9.0 0.00 0.25 0.22 94 1006.3
20260903223509 67 85 5.0 12.0 0.00 0.25 0.22 94 1006.4
20260903223010 67 82 5.0 10.0 0.00 0.25 0.22 94 1006.4
20260903221509 67 119 5.0 10.0 0.00 0.25 0.22 93 1006.4
20260903221009 67 134 5.0 12.0 0.00 0.25 0.22 93 1006.5
20260903220510 67 124 5.0 12.0 0.00 0.25 0.22 93 1006.4
20260903220009 67 109 5.0 9.0 0.00 0.25 0.22 93 1006.4
20260903214509 67 116 5.0 10.0 0.00 0.25 0.22 93 1006.5
20260903214010 67 115 5.0 12.0 0.00 0.25 0.22 92 1006.6
20260903213509 67 118 6.0 10.0 0.00 0.25 0.22 92 1006.5
20260903213009 67 107 5.0 10.0 0.00 0.25 0.22 92 1006.5
20260903211509 67 97 4.0 14.0 0.00 0.25 0.22 92 1006.5
20260903211009 67 132 6.0 10.0 0.00 0.25 0.22 92 1006.5
20260903210009 67 125 6.0 12.0 0.00 0.25 0.22 91 1006.5
20260903204509 68 97 5.0 10.0 0.00 0.25 0.22 91 1006.5
20260903203008 67 97 5.0 26.0 0.00 0.25 0.22 91 1006.7
20260903201509 67 145 6.0 22.0 0.00 0.25 0.22 92 1006.9
20260903201009 67 128 5.0 9.0 0.00 0.25 0.22 92 1006.8
20260903200509 67 101 7.0 9.0 0.00 0.25 0.22 93 1006.8
20260903194509 67 55 5.0 8.0 0.00 0.25 0.22 93 1006.7
20260903193508 67 62 4.0 15.0 0.00 0.25 0.22 93 1006.8
20260903193009 67 84 3.0 15.0 0.00 0.25 0.22 92 1006.8
20260903191009 67 97 5.0 12.0 0.00 0.25 0.22 95 1007.1
20260903190508 67 72 4.0 16.0 0.00 0.25 0.22 95 1007.1
20260903190009 67 113 8.0 17.0 0.00 0.25 0.22 96 1007.2
20260903184508 66 67 3.0 7.0 0.00 0.25 0.22 96 1007.3
20260903183509 66 50 3.0 7.0 0.00 0.25 0.22 97 1007.4
20260903183009 66 66 3.0 7.0 0.00 0.25 0.22 96 1007.6
20260903181508 66 56 3.0 6.0 0.00 0.25 0.22 97 1007.7
20260903181008 65 76 3.0 5.0 0.00 0.25 0.22 98 1007.8
20260903180508 65 37 3.0 5.0 0.00 0.25 0.22 98 1007.8
20260903180008 65 74 3.0 6.0 0.00 0.25 0.22 97 1007.7
20260903174508 65 84 1.0 3.0 0.00 0.25 0.22 99 1007.7
20260903174008 65 112 2.0 3.0 0.00 0.25 0.22 99 1007.7
20260903173508 65 98 2.0 3.0 0.00 0.25 0.22 99 1007.6
20260903173008 65 102 2.0 3.0 0.00 0.25 0.22 99 1007.6
20260903171008 64 82 1.0 3.0 0.00 0.25 0.22 100 1007.9
20260903170507 65 113 2.0 3.0 0.00 0.25 0.22 100 1008.0
20260903170007 65 101 2.0 3.0 0.00 0.25 0.22 100 1007.8
20260903164508 64 105 3.0 5.0 0.00 0.25 0.22 100 1007.9
20260903163508 64 125 3.0 5.0 0.00 0.25 0.22 100 1007.9
20260903163008 64 103 2.0 3.0 0.00 0.25 0.22 100 1008.0
20260903161507 64 124 2.0 3.0 0.00 0.25 0.22 100 1008.1
20260903161008 63 117 2.0 2.0 0.00 0.25 0.22 100 1008.3
20260903160508 63 115 2.0 3.0 0.00 0.25 0.22 100 1008.5
20260903160007 63 126 2.0 3.0 0.00 0.25 0.22 100 1008.5
20260903154508 64 113 3.0 3.0 0.00 0.25 0.22 100 1008.6
20260903153008 64 100 3.0 3.0 0.00 0.25 0.22 100 1008.7
20260903151508 64 93 1.0 2.0 0.00 0.25 0.22 100 1008.9
20260903151007 63 80 1.0 3.0 0.00 0.25 0.22 100 1008.9
20260903150507 63 115 2.0 2.0 0.00 0.25 0.22 100 1008.9
20260903150008 63 98 2.0 3.0 0.00 0.25 0.22 100 1009.0
20260903144007 63 52 2.0 3.0 0.00 0.25 0.22 100 1009.3
20260903143507 63 51 2.0 6.0 0.00 0.25 0.22 100 1009.4
20260903143007 63 54 3.0 7.0 0.00 0.25 0.22 100 1009.4
20260903141507 63 53 3.0 7.0 0.00 0.25 0.22 100 1009.4
20260903141008 63 50 2.0 3.0 0.00 0.25 0.22 100 1009.5
20260903140507 63 51 3.0 5.0 0.00 0.25 0.22 100 1009.4
20260903140007 63 51 2.0 3.0 0.00 0.25 0.22 100 1009.4
20260903134507 62 50 2.0 2.0 0.00 0.25 0.22 100 1009.5
20260903134007 62 48 1.0 1.0 0.00 0.25 0.22 100 1009.5
20260903133507 62 47 1.0 1.0 0.00 0.25 0.22 100 1009.5
20260903133007 62 47 1.0 2.0 0.00 0.25 0.22 100 1009.6
20260903131507 62 47 1.0 3.0 0.00 0.25 0.22 100 1009.6
20260903131007 62 49 2.0 24.0 0.00 0.25 0.22 100 1009.6
20260903130007 62 324 3.0 10.0 0.00 0.25 0.22 100 1009.7
20260903124007 62 23 2.0 7.0 0.00 0.25 0.22 100 1010.0
20260903123507 62 240 2.0 7.0 0.00 0.25 0.22 100 1010.0
20260903123007 62 293 2.0 9.0 0.00 0.25 0.22 100 1010.0
20260903121507 62 66 1.0 2.0 0.00 0.25 0.22 100 1010.3
20260903121007 62 295 2.0 3.0 0.00 0.25 0.22 100 1010.3
20260903120007 62 52 1.0 3.0 0.00 0.25 0.22 100 1010.4
20260903114506 62 62 1.0 2.0 0.00 0.25 0.22 100 1010.4
20260903114007 62 98 1.0 1.0 0.00 0.25 0.22 100 1010.4
20260903113507 62 269 1.0 2.0 0.00 0.25 0.22 100 1010.3
20260903111506 62 299 1.0 2.0 0.00 0.25 0.22 100 1010.2
20260903111007 62 122 1.0 2.0 0.00 0.25 0.22 100 1010.3
20260903110507 62 315 1.0 2.0 0.00 0.25 0.22 100 1010.3
20260903110006 62 304 1.0 2.0 0.00 0.25 0.22 100 1010.2
20260903104507 62 94 1.0 2.0 0.01 0.25 0.22 100 1010.2
20260903104007 62 101 1.0 1.0 0.01 0.25 0.22 100 1010.3
20260903103507 62 92 1.0 1.0 0.01 0.25 0.22 100 1010.4
20260903103006 61 93 1.0 1.0 0.02 0.25 0.22 100 1010.5
20260903101506 61 88 1.0 1.0 0.16 0.25 0.23 99 1010.7
20260903101007 61 285 1.0 1.0 0.18 0.25 0.23 99 1010.6
20260903100506 61 87 1.0 1.0 0.23 0.24 0.23 99 1010.6
20260903100006 62 91 1.0 1.0 0.23 0.24 0.23 98 1010.6
20260903094006 63 59 1.0 1.0 0.22 0.24 0.22 98 1010.9
20260903093506 63 70 1.0 1.0 0.24 0.24 0.24 98 1011.0
20260903093006 63 84 1.0 2.0 0.22 0.22 0.22 97 1011.1
20260903091506 64 96 2.0 2.0 0.07 0.07 0.07 95 1011.1
20260903091006 64 103 1.0 1.0 0.05 0.05 0.05 95 1011.4
20260903090506 64 95 1.0 1.0 0.00 0.00 0.00 94 1011.3
20260903084506 64 348 1.0 2.0 0.00 0.00 0.00 93 1010.4
20260903084006 64 89 1.0 3.0 0.00 0.00 0.00 93 1010.3
20260903081506 64 59 1.0 2.0 0.00 0.00 0.00 95 1010.5
20260903081005 64 86 2.0 3.0 0.00 0.00 0.00 95 1010.6
20260903080506 64 41 1.0 2.0 0.00 0.00 0.00 95 1010.8
20260903074506 64 92 1.0 2.0 0.00 0.00 0.00 94 1011.0
20260903074006 64 350 1.0 2.0 0.00 0.00 0.00 94 1010.8
20260903073506 64 67 1.0 2.0 0.00 0.00 0.00 94 1010.7
20260903071505 64 77 1.0 2.0 0.00 0.00 0.00 94 1011.1
20260903071006 64 231 1.0 2.0 0.00 0.00 0.00 94 1011.2
20260903070505 64 267 1.0 2.0 0.00 0.00 0.00 94 1011.2
20260903070006 64 74 2.0 2.0 0.00 0.00 0.00 94 1011.2
20260903064505 63 306 1.0 2.0 0.00 0.00 0.00 97 1011.9
20260903064006 63 65 1.0 1.0 0.00 0.00 0.00 97 1012.1
20260903063505 62 108 1.0 1.0 0.00 0.00 0.00 98 1012.2
20260903061505 62 97 1.0 2.0 0.00 0.00 0.00 99 1012.7
20260903061006 62 158 1.0 1.0 0.00 0.00 0.00 99 1012.8
20260903060505 62 94 0.0 1.0 0.00 0.00 0.00 99 1012.7
20260903060005 62 101 1.0 2.0 0.00 0.00 0.00 99 1012.6
20260903054506 62 67 1.0 2.0 0.00 0.00 0.00 99 1012.9
20260903054005 62 90 1.0 1.0 0.00 0.00 0.00 99 1012.9
20260903053005 62 35 1.0 2.0 0.00 0.00 0.00 99 1013.0
20260903051505 62 83 1.0 1.0 0.00 0.00 0.00 99 1013.0
20260903050505 62 90 1.0 1.0 0.00 0.00 0.00 99 1013.0
20260903050005 62 79 1.0 2.0 0.00 0.00 0.00 99 1013.0
20260903044505 62 95 1.0 1.0 0.00 0.00 0.00 99 1013.2
20260903044005 62 72 1.0 2.0 0.00 0.00 0.00 99 1013.3
20260903043505 62 63 1.0 1.0 0.00 0.00 0.00 99 1013.4
20260903043005 62 109 1.0 3.0 0.00 0.00 0.00 99 1013.3
20260903041504 62 94 1.0 1.0 0.00 0.00 0.00 99 1013.3
20260903041005 62 98 1.0 1.0 0.00 0.00 0.00 98 1013.4
20260903040505 62 96 1.0 3.0 0.00 0.00 0.00 98 1013.5
20260903040004 62 99 1.0 2.0 0.00 0.00 0.00 98 1013.7
20260903034504 62 216 1.0 2.0 0.00 0.00 0.00 98 1014.1
20260903034004 62 65 1.0 2.0 0.00 0.00 0.00 98 1014.1
20260903033005 62 101 1.0 2.0 0.00 0.00 0.00 98 1014.2
20260903031505 62 90 1.0 1.0 0.00 0.00 0.00 97 1014.2
20260903030506 62 103 1.0 2.0 0.00 0.00 0.00 97 1014.3
20260903024504 62 82 1.0 1.0 0.00 0.00 0.00 97 1014.1
20260903024005 62 102 1.0 1.0 0.00 0.00 0.00 97 1014.2
20260903023504 62 80 1.0 1.0 0.00 0.00 0.00 96 1014.1
20260903023005 62 79 1.0 3.0 0.00 0.00 0.00 96 1014.2
20260903021504 62 77 1.0 1.0 0.00 0.00 0.00 96 1014.4
20260903021004 62 72 1.0 2.0 0.00 0.00 0.00 96 1014.5
20260903020504 62 134 1.0 2.0 0.00 0.00 0.00 96 1014.6
20260903020004 62 71 1.0 2.0 0.00 0.00 0.00 96 1014.6
20260903014004 62 72 1.0 2.0 0.00 0.00 0.00 96 1014.7
20260903013504 62 175 1.0 3.0 0.00 0.00 0.00 96 1014.6
20260903013004 62 146 1.0 3.0 0.00 0.00 0.00 96 1014.5
20260903011504 61 123 1.0 2.0 0.00 0.00 0.00 96 1014.5
20260903011004 61 20 1.0 3.0 0.00 0.00 0.00 96 1014.3
20260903010504 61 64 1.0 1.0 0.00 0.00 0.00 96 1014.3
20260903004504 61 86 1.0 2.0 0.00 0.00 0.00 96 1014.4
20260903004004 61 69 1.0 1.0 0.00 0.00 0.00 96 1014.5
20260903003504 61 68 1.0 1.0 0.00 0.00 0.00 96 1014.6